Location: Campbell River
(50.0170°N, 125.2500°W)
Time: 17:11:14
(UTC-07:00)

Daily predictions for brighter satellites

Satellite Brightness Start Highest point End
(mag) Time Altitude Azimuth Time Altitude Azimuth Time Altitude Azimuth
ATLAS CENTAUR R/B 4.4 19:29:15 10° S 19:34:39 37° ESE 19:49:07 10° NE
Cosmos 1452 Rocket 3.8 19:34:07 10° NNW 19:39:15 50° ENE 19:44:22 10° SE
Meteor 1-28 Rocket 3.7 19:36:07 10° NNE 19:39:38 37° E 19:43:06 10° SSE
Cosmos 2112 Rocket 4.3 19:35:08 10° SSW 19:40:30 79° WNW 19:45:54 10° NNE
H-2A R/B 4.2 19:38:13 10° ESE 19:41:05 20° ENE 19:43:56 10° NNE
DMSP B5D1-3 4.5 19:38:29 10° NNE 19:43:36 69° ESE 19:48:41 10° S
CZ-4B DEB 4.2 19:41:05 10° ESE 19:43:36 21° ENE 19:46:08 10° NNE
Cosmos 1680 Rocket 4.1 19:40:00 10° SW 19:45:18 64° WNW 19:50:37 10° NNE
ATLAS 3B R/B 3.3 19:38:52 10° SW 19:46:28 70° NW 19:53:46 10° NE
Cosmos 2219 Rocket 2.7 19:41:03 10° SW 19:46:40 65° WNW 19:52:19 10° NNE
Cosmos 1707 3.7 19:43:26 10° NNW 19:47:13 53° W 19:50:57 10° S
Cosmos 2360 Rocket 4.4 19:42:40 10° W 19:47:17 25° NW 19:51:56 10° NNE
Cosmos 2278 Rocket 3.7 19:42:19 10° NW 19:47:34 40° WSW 19:52:47 10° S
METEOR-M 4.2 19:42:40 10° SSE 19:47:58 64° ENE 19:53:16 10° N
ALOS 2.9 19:46:11 10° SE 19:50:23 35° ENE 19:54:38 10° N
Cosmos 2297 4.1 19:47:06 10° NNW 19:52:45 68° WSW 19:58:21 10° SSE
Meteor 1-22 Rocket 4.1 19:48:29 10° S 19:53:44 63° E 19:58:59 10° NNE
Cosmos 1437 3.8 19:51:26 10° NNW 19:54:38 50° W 19:57:48 10° S
NOSS 0 Rocket 4.2 19:48:27 10° SW 19:54:38 78° WNW 20:00:54 10° NNE
FREGAT/IRIS 2.6 19:53:16 10° SSE 19:56:22 89° ENE 19:59:29 10° NNW
SAR-Lupe-4 4.3 19:52:52 10° S 19:56:24 57° WSW 19:59:57 10° NNW
FENGYUN 3A 4.1 19:52:01 10° SE 19:57:03 43° ENE 20:02:08 10° N
Meteor 1-24 Rocket 4.0 19:53:00 10° NNW 19:58:44 74° W 20:04:12 10° S
Cosmos 1766 Rocket 3.6 19:54:26 10° N 19:58:47 58° ENE 20:03:05 10° SSE
SJ-6B 3.3 19:56:34 10° S 20:00:33 68° WSW 20:04:38 10° NNW
Cosmos 1420 Rocket 4.4 19:57:08 10° NNW 20:02:14 46° ENE 20:07:21 10° SE
COSMOS 2455 3.9 19:57:06 10° WSW 20:02:54 47° NW 20:08:44 10° NNE
NOSS 3-2 (A) 3.7 19:58:00 10° SSW 20:03:51 48° ESE 20:10:15 10° NE
Cosmos 2369 Rocket 3.0 20:01:19 10° NNW 20:06:25 34° NE 20:10:43 14° ESE
USA 186 2.9 20:07:00 15° ENE 20:07:00 15° ENE 20:08:29 10° NNE
CZ-4C R/B 2.4 20:02:14 10° SW 20:07:43 81° NW 20:14:01 10° NE
USA 238 DEB 3.9 20:02:30 10° SW 20:09:35 85° NW 20:16:41 10° NE
USA 238 3.9 20:02:36 10° SW 20:09:40 85° NW 20:16:47 10° NE
H-2A R/B 4.3 20:09:19 10° ENE 20:10:10 10° NE 20:11:01 10° NE
Cosmos 1758 3.8 20:06:24 10° SSE 20:10:12 39° E 20:14:03 10° NNE
Cosmos 1943 Rocket 3.6 20:09:08 10° NNW 20:13:28 22° NE 20:16:46 14° E
Cosmos 1603 4.4 20:09:52 10° SSE 20:14:47 30° ESE 20:19:43 10° NE
Cosmos 1076 Rocket 3.6 20:10:39 10° NNW 20:14:59 83° W 20:19:20 10° S
Cosmos 2034 Rocket 4.1 20:10:23 10° S 20:16:30 58° E 20:22:43 10° NNE
Helios 1B rocket 2.5 20:12:32 10° NNE 20:16:36 54° ESE 20:20:38 10° S
ERBS 3.9 20:14:03 10° NW 20:17:07 27° N 20:19:29 14° ENE
Cosmos 1464 Rocket 3.9 20:12:42 10° S 20:18:56 77° E 20:25:08 10° NNE
ASTEX 1 3.8 20:17:26 10° NNE 20:22:04 39° E 20:26:38 10° SSE
Cosmos 1674 3.2 20:20:44 10° N 20:24:23 38° ENE 20:26:55 17° SE
Spot 2 Rocket 3.8 20:19:36 10° S 20:24:38 72° WSW 20:29:41 10° NNW
Cosmos-2242 3.2 20:20:28 10° S 20:24:42 50° E 20:28:58 10° NNE
Cosmos 2333 Rocket 3.4 20:21:02 10° SW 20:26:35 46° NW 20:32:09 10° NNE
Cosmos 1346 2.9 20:27:14 10° N 20:30:13 67° ENE 20:32:16 18° SSE
FengYun 1-2 T 4.3 20:25:22 10° SSE 20:30:53 83° WSW 20:36:26 10° NNW
Cosmos 1500 Rocket 3.8 20:28:38 10° N 20:32:56 48° ENE 20:36:15 16° SE
Cosmos 1408 Rocket 4.1 20:29:05 10° NNW 20:33:25 62° W 20:37:41 10° S
TELKOM 3 4.0 20:32:18 10° W 20:34:57 37° SSW 20:35:34 30° SSE
Envisat 3.9 20:33:30 22° E 20:35:36 29° ENE 20:39:57 10° N
Cosmos 1842 Rocket 4.1 20:32:06 10° SSE 20:35:59 33° E 20:39:55 10° NNE
Cosmos 2151 3.8 20:32:29 10° N 20:36:13 29° ENE 20:37:16 26° E
Cosmos 1939 Rocket 4.1 20:35:38 23° E 20:36:16 24° ENE 20:39:30 10° N
ATLAS CENTAUR R/B 4.4 20:37:40 10° W 20:39:18 12° WSW 20:40:54 10° SW
Aureole 2 Rocket 3.4 20:36:20 10° SW 20:40:40 63° WNW 20:44:53 10° NNE
CENTAUR R/B 3.5 20:36:45 10° SSE 20:46:45 - ENE 20:40:44 22° ESE
NOSS 3-2 (C) 3.5 20:35:23 10° SSW 20:41:28 66° SE 20:48:12 10° NE
Meteor 1-21 Rocket 4.3 20:36:42 10° NNW 20:42:19 81° W 20:47:50 10° S
Cosmos 2058 3.9 20:45:25 10° N 20:48:56 27° ENE 20:48:56 27° ENE
Resurs 01 Rocket 3.0 20:45:34 10° S 20:49:46 40° W 20:54:00 10° NNW
Meteor 1-29 3.2 20:46:30 10° N 20:50:02 74° WNW 20:53:32 10° SSW
SL-14 R/B 4.5 20:47:41 10° NNE 20:50:54 26° ENE 20:50:54 26° ENE
Cosmos 2237 Rocket 3.7 20:46:56 10° WSW 20:52:11 37° NW 20:57:27 10° NNE
SPOT 5 4.0 20:54:43 21° ENE 20:54:43 21° ENE 20:57:55 10° N
CZ-2D R/B 3.5 20:53:47 12° S 20:57:25 69° WSW 21:01:20 10° NNW
ATLAS 5 CENTAUR R/B 1.8 20:54:16 10° SSW 20:59:05 69° SE 21:04:24 10° NE
Cosmos 1743 Rocket 3.9 20:56:41 10° NNW 21:01:07 66° W 21:05:29 10° S
Cosmos 1953 3.0 21:00:58 10° SSW 21:04:53 55° WNW 21:08:49 10° N
USA 215 3.1 21:05:01 11° ENE 21:11:16 76° SE 21:17:49 10° SW
SL-16 R/B 3.1 21:05:53 10° SW 21:11:26 51° NW 21:17:00 10° NNE
Cosmos 1110 Rocket 4.1 21:08:34 10° NNW 21:13:48 58° ENE 21:15:10 44° ESE
GP-B 3.0 21:10:03 10° N 21:14:32 76° E 21:16:19 36° S
Cosmos 1805 4.5 21:11:16 10° SSW 21:15:01 43° WNW 21:18:49 10° N
H-2A R/B 3.8 21:11:42 12° S 21:15:08 45° W 21:18:53 10° NNW
Cosmos 1544 3.7 21:12:25 10° SSW 21:16:07 57° WNW 21:19:51 10° N
SeaSat 1 2.5 21:11:36 10° NE 21:16:29 54° ESE 21:21:18 10° SSW
ERS-1 Rocket 2.9 21:14:56 42° SE 21:16:34 68° ENE 21:21:35 10° N
Cosmos 482 Debris 4.3 21:17:14 10° WNW 21:19:16 50° NW 21:19:16 50° NW
Cosmos 1655 Rocket 3.9 21:18:22 10° N 21:24:36 68° ENE 21:26:58 39° SSE
ARGOS 4.1 21:24:38 30° ENE 21:24:38 30° ENE 21:29:18 10° N
BREEZE-M DEB (TANK) 3.9 21:14:27 10° WSW 21:25:30 75° SSE 21:26:54 47° E
Sich 1 4.2 21:21:44 10° N 21:24:40 29° NE 21:24:40 29° NE
CZ-4 DEB 4.2 21:28:44 31° N 21:28:44 31° N 21:30:31 10° NNW
ALOS 3.9 21:23:38 10° SSW 21:27:51 33° W 21:32:05 10° NNW
Cosmos 2279 Rocket 4.1 21:28:27 46° ESE 21:29:14 48° E 21:35:10 10° NNE
Cosmos 1092 Rocket 4.4 21:23:45 10° NNW 21:29:55 63° W 21:35:59 10° S
SL-24 R/B - RUBIN 2 4.5 21:28:57 10° NW 21:35:45 79° NE 21:37:31 51° SE
Cosmos 1470 3.2 21:35:10 36° SW 21:36:33 59° WNW 21:40:25 10° N
ATLAS 3B R/B 4.3 21:31:50 10° W 21:38:26 32° NNW 21:44:46 10° NE
Cosmos 2142 Rocket 4.4 21:32:41 10° S 21:39:04 85° E 21:45:31 10° N
Cosmos 2266 Rocket 4.5 21:36:19 10° N 21:42:18 41° ENE 21:42:18 41° ENE
Cosmos 1805 Rocket 3.8 21:39:46 10° N 21:43:35 62° NNE 21:43:35 62° NNE
Cosmos 724 4.4 21:39:17 10° SW 21:45:16 77° NW 21:51:26 10° NE
H-2A R/B 2.6 21:46:04 52° NNE 21:46:04 52° NNE 21:49:43 10° N
Cosmos 2026 Rocket 3.9 21:39:20 10° N 21:45:27 81° W 21:47:56 38° S
YAOGAN 11 4.4 21:48:28 57° SW 21:48:47 59° WSW 21:53:03 10° NNW
Cosmos 1331 Rocket 3.9 21:43:30 10° NNW 21:48:51 88° WSW 21:49:20 75° SSE
Cosmos 1634 Rocket 4.0 21:43:12 10° SSW 21:49:27 78° W 21:55:42 10° N
Cosmos 1733 4.0 21:49:32 51° WNW 21:49:34 51° WNW 21:53:22 10° N
Cosmos 1428 Rocket 4.4 21:43:43 10° N 21:50:01 76° E 21:51:10 60° SE
Cosmos 2369 Rocket 2.7 21:45:13 10° NW 21:50:43 54° WSW 21:52:32 38° SSW
Cosmos 2263 4.4 21:47:45 10° NNW 21:53:32 69° WSW 21:54:43 54° S
ERBS 4.1 21:50:51 10° NW 21:52:54 32° NW 21:52:54 32° NW
NOSS 3-2 (A) 4.3 21:48:36 10° WSW 21:54:45 51° NW 22:01:32 10° NE
Cosmos 1943 3.4 21:56:26 55° NE 21:56:26 55° NE 22:00:52 10° NNE
CZ-4C R/B 4.0 21:52:03 10° W 21:57:12 31° NNW 22:03:00 10° NE
Cosmos 1943 Rocket 2.0 21:52:24 10° NNW 21:58:05 86° ENE 21:58:18 82° ESE
Cosmos 1603 4.4 21:52:59 10° SW 21:58:38 55° NW 22:04:19 10° NNE
Cosmos 1633 Rocket 4.2 21:54:33 10° N 21:57:19 36° N 21:57:19 36° N
Cosmos 1302 Rocket 4.1 21:54:08 10° NNW 21:58:54 66° NNE 21:58:54 66° NNE
Meteor 2-1 Rocket 4.2 22:03:14 76° ENE 22:03:14 76° ENE 22:08:53 10° NNE
Terra 3.7 22:05:50 20° NNE 22:05:50 20° NNE 22:07:51 10° N
Cosmos 2221 4.1 22:09:42 29° N 22:09:42 29° N 22:11:54 10° N
Cosmos 1939 Rocket 4.3 22:11:35 36° WNW 22:11:35 36° WNW 22:14:49 10° NNW
H-2A R/B 3.3 22:14:42 29° NNE 22:14:42 29° NNE 22:17:42 10° N
MetOp-B 4.1 22:13:42 78° NW 22:13:42 78° NW 22:18:44 10° NNW
Envisat 3.7 22:13:43 44° SW 22:14:26 47° W 22:19:21 10° NNW
Aureole 3 4.3 22:11:02 10° NNW 22:17:50 80° W 22:18:00 79° WSW
BREEZE-M DEB (TANK) 4.2 22:16:57 10° W 22:23:20 35° SW 22:23:20 35° SW
UNK 4.3 22:11:14 10° WNW 22:27:18 66° SSW 22:27:28 66° SSW
CENTAUR R/B 3.4 22:24:44 10° SW 22:33:45 40° NE 22:38:10 10° NE
Meteor 2-20 Rocket 4.5 22:24:51 10° NNW 22:31:01 74° W 22:31:01 74° W
SPOT 5 4.2 22:33:58 33° NW 22:33:58 33° NW 22:36:40 10° NNW
SPOT 1/Viking Rocket 4.3 22:37:21 49° NNW 22:37:21 49° NNW 22:41:07 10° NNW
ATLAS 5 CENTAUR R/B 3.5 22:39:39 10° W 22:44:14 33° NNW 22:47:31 18° NNE
SeaSat 1 4.1 22:49:28 10° NNE 22:53:49 31° NW 22:58:08 10° WSW
USA 215 3.7 22:52:23 44° NE 22:54:11 57° NNW 23:00:34 10° W
ARGOS 4.3 23:06:09 40° NW 23:06:09 40° NW 23:09:58 10° NNW
Cosmos 1980 Rocket 4.2 23:18:25 10° NNW 23:21:31 21° NNE 23:21:31 21° NNE
ATLAS 3B R/B 4.4 23:25:11 10° NW 23:31:19 28° N 23:33:47 23° NE
Cosmos 1943 Rocket 4.5 23:37:30 10° WNW 23:39:50 16° W 23:39:50 16° W
Terra 4.3 23:44:44 19° NNW 23:44:44 19° NNW 23:46:06 10° NNW
CZ-4C R/B 4.4 23:42:33 10° NW 23:47:43 26° N 23:50:18 21° NE
SL-16 R/B 4.5 23:47:03 10° N 23:49:56 17° NNE 23:49:56 17° NNE
H-2A R/B 4.3 23:55:21 20° NW 23:55:21 20° NW 23:57:08 10° NNW
